contact:dominique.lefevre@mio.osupytheas.fr, maurice.libes@osupytheas.fr, didier.mallarino@osupytheas.fr
Project:EMSO http://www.emso-fr.org/EMSO-France
Depth: 2436.0 m
Title:EMSO Ligure Ouest : Data MII capteur MICROCAT
DateTime_Computer,Latitude,Longitude,Temperature,Conductivity,Pressure,DateTime_Instrument
DateTime_Computer,Latitude,Longitude,degC,S m-1,dbar,DateTime_Instrument
2022-07-11T00:03:00Z,42.805,6.029,13.3037,4.60089,2470.437,2022-7-11T02:04:46Z
2022-07-11T00:06:03Z,42.805,6.029,13.3020,4.60098,2470.437,2022-7-11T02:07:49Z
2022-07-11T00:09:06Z,42.805,6.029,13.3031,4.60105,2470.404,2022-7-11T02:10:52Z
2022-07-11T00:12:09Z,42.805,6.029,13.3031,4.60101,2470.413,2022-7-11T02:13:55Z
2022-07-11T00:15:12Z,42.805,6.029,13.3034,4.60109,2470.404,2022-7-11T02:16:58Z
2022-07-11T00:18:15Z,42.805,6.029,13.3019,4.60075,2470.404,2022-7-11T02:20:01Z
2022-07-11T00:21:18Z,42.805,6.029,13.3015,4.60095,2470.39,2022-7-11T02:23:04Z
2022-07-11T00:24:21Z,42.805,6.029,13.3025,4.60064,2470.39,2022-7-11T02:26:07Z
2022-07-11T00:27:25Z,42.805,6.029,13.3013,4.60064,2470.413,2022-7-11T02:29:10Z
2022-07-11T00:30:28Z,42.805,6.029,13.3031,4.60084,2470.404,2022-7-11T02:32:14Z
2022-07-11T00:33:31Z,42.805,6.029,13.3039,4.60077,2470.45,2022-7-11T02:35:17Z
2022-07-11T00:36:34Z,42.805,6.029,13.3014,4.60087,2470.413,2022-7-11T02:38:20Z
2022-07-11T00:39:37Z,42.805,6.029,13.3016,4.60058,2470.427,2022-7-11T02:41:23Z
2022-07-11T00:42:40Z,42.805,6.029,13.3019,4.60071,2470.413,2022-7-11T02:44:26Z
2022-07-11T00:45:43Z,42.805,6.029,13.3034,4.60087,2470.39,2022-7-11T02:47:29Z
2022-07-11T00:48:46Z,42.805,6.029,13.3035,4.60088,2470.39,2022-7-11T02:50:32Z
2022-07-11T00:51:50Z,42.805,6.029,13.3025,4.60101,2470.427,2022-7-11T02:53:35Z
2022-07-11T00:54:53Z,42.805,6.029,13.3033,4.60078,2470.413,2022-7-11T02:56:39Z
2022-07-11T00:57:56Z,42.805,6.029,13.3036,4.60091,2470.45,2022-7-11T02:59:42Z
2022-07-11T01:00:59Z,42.805,6.029,13.3033,4.60085,2470.413,2022-7-11T03:02:45Z
2022-07-11T01:04:02Z,42.805,6.029,13.3028,4.60098,2470.474,2022-7-11T03:05:48Z
2022-07-11T01:07:05Z,42.805,6.029,13.3028,4.60100,2470.413,2022-7-11T03:08:51Z
2022-07-11T01:10:08Z,42.805,6.029,13.3023,4.60092,2470.413,2022-7-11T03:11:54Z
2022-07-11T01:13:11Z,42.805,6.029,13.3021,4.60083,2470.437,2022-7-11T03:14:57Z
2022-07-11T01:16:15Z,42.805,6.029,13.3028,4.60106,2470.437,2022-7-11T03:18:00Z
2022-07-11T01:19:18Z,42.805,6.029,13.3039,4.60082,2470.45,2022-7-11T03:21:04Z
2022-07-11T01:22:21Z,42.805,6.029,13.3039,4.60087,2470.413,2022-7-11T03:24:07Z
2022-07-11T01:25:24Z,42.805,6.029,13.3037,4.60077,2470.437,2022-7-11T03:27:10Z
2022-07-11T01:28:27Z,42.805,6.029,13.3040,4.60081,2470.413,2022-7-11T03:30:13Z
2022-07-11T01:31:30Z,42.805,6.029,13.3029,4.60094,2470.45,2022-7-11T03:33:16Z
2022-07-11T01:34:33Z,42.805,6.029,13.3029,4.60108,2470.437,2022-7-11T03:36:19Z
2022-07-11T01:37:36Z,42.805,6.029,13.3036,4.60092,2470.474,2022-7-11T03:39:22Z
2022-07-11T01:40:40Z,42.805,6.029,13.3026,4.60074,2470.413,2022-7-11T03:42:25Z
2022-07-11T01:43:43Z,42.805,6.029,13.3037,4.60091,2470.413,2022-7-11T03:45:28Z
2022-07-11T01:46:46Z,42.805,6.029,13.3032,4.60099,2470.437,2022-7-11T03:48:32Z
2022-07-11T01:49:49Z,42.805,6.029,13.3039,4.60094,2470.474,2022-7-11T03:51:35Z
2022-07-11T01:52:52Z,42.805,6.029,13.3031,4.60087,2470.46,2022-7-11T03:54:38Z
2022-07-11T01:55:55Z,42.805,6.029,13.3026,4.60107,2470.437,2022-7-11T03:57:41Z
2022-07-11T01:58:58Z,42.805,6.029,13.3014,4.60080,2470.474,2022-7-11T04:00:44Z
2022-07-11T02:02:01Z,42.805,6.029,13.3036,4.60078,2470.46,2022-7-11T04:03:47Z
2022-07-11T02:05:04Z,42.805,6.029,13.3041,4.60097,2470.437,2022-7-11T04:06:50Z
2022-07-11T02:08:08Z,42.805,6.029,13.3029,4.60081,2470.474,2022-7-11T04:09:53Z
2022-07-11T02:11:11Z,42.805,6.029,13.3039,4.60104,2470.46,2022-7-11T04:12:57Z
2022-07-11T02:14:14Z,42.805,6.029,13.3041,4.60107,2470.507,2022-7-11T04:16:00Z
2022-07-11T02:17:17Z,42.805,6.029,13.3032,4.60092,2470.483,2022-7-11T04:19:03Z
2022-07-11T02:20:20Z,42.805,6.029,13.3023,4.60102,2470.483,2022-7-11T04:22:06Z
2022-07-11T02:23:23Z,42.805,6.029,13.3030,4.60084,2470.497,2022-7-11T04:25:09Z
2022-07-11T02:26:26Z,42.805,6.029,13.3033,4.60094,2470.507,2022-7-11T04:28:12Z
2022-07-11T02:29:29Z,42.805,6.029,13.3034,4.60097,2470.497,2022-7-11T04:31:15Z
2022-07-11T02:32:33Z,42.805,6.029,13.3043,4.60119,2470.46,2022-7-11T04:34:18Z
2022-07-11T02:35:36Z,42.805,6.029,13.3028,4.60082,2470.45,2022-7-11T04:37:22Z
2022-07-11T02:38:39Z,42.805,6.029,13.3013,4.60090,2470.497,2022-7-11T04:40:25Z
2022-07-11T02:41:42Z,42.805,6.029,13.3036,4.60096,2470.483,2022-7-11T04:43:28Z
2022-07-11T02:44:45Z,42.805,6.029,13.3030,4.60097,2470.483,2022-7-11T04:46:31Z
2022-07-11T02:47:48Z,42.805,6.029,13.3032,4.60113,2470.483,2022-7-11T04:49:34Z
2022-07-11T02:50:51Z,42.805,6.029,13.3039,4.60112,2470.507,2022-7-11T04:52:37Z
2022-07-11T02:53:54Z,42.805,6.029,13.3041,4.60113,2470.507,2022-7-11T04:55:40Z
2022-07-11T02:56:57Z,42.805,6.029,13.3039,4.60093,2470.53,2022-7-11T04:58:43Z
2022-07-11T03:00:01Z,42.805,6.029,13.3041,4.60114,2470.52,2022-7-11T05:01:46Z
2022-07-11T03:03:04Z,42.805,6.029,13.3039,4.60114,2470.52,2022-7-11T05:04:50Z
2022-07-11T03:06:07Z,42.805,6.029,13.3061,4.60122,2470.483,2022-7-11T05:07:53Z
2022-07-11T03:09:10Z,42.805,6.029,13.3043,4.60117,2470.47,2022-7-11T05:10:56Z
2022-07-11T03:12:13Z,42.805,6.029,13.3052,4.60093,2470.507,2022-7-11T05:13:59Z
2022-07-11T03:15:16Z,42.805,6.029,13.3018,4.60096,2470.53,2022-7-11T05:17:02Z
2022-07-11T03:18:19Z,42.805,6.029,13.3032,4.60094,2470.507,2022-7-11T05:20:05Z
2022-07-11T03:21:22Z,42.805,6.029,13.3046,4.60112,2470.53,2022-7-11T05:23:08Z
2022-07-11T03:24:26Z,42.805,6.029,13.3059,4.60127,2470.507,2022-7-11T05:26:11Z
2022-07-11T03:27:29Z,42.805,6.029,13.3044,4.60110,2470.53,2022-7-11T05:29:15Z
2022-07-11T03:30:32Z,42.805,6.029,13.3037,4.60115,2470.53,2022-7-11T05:32:18Z
2022-07-11T03:33:35Z,42.805,6.029,13.3057,4.60145,2470.507,2022-7-11T05:35:21Z
2022-07-11T03:36:38Z,42.805,6.029,13.3037,4.60132,2470.53,2022-7-11T05:38:24Z
2022-07-11T03:39:41Z,42.805,6.029,13.3035,4.60125,2470.544,2022-7-11T05:41:27Z
2022-07-11T03:42:44Z,42.805,6.029,13.3043,4.60123,2470.544,2022-7-11T05:44:30Z
2022-07-11T03:45:47Z,42.805,6.029,13.3042,4.60119,2470.52,2022-7-11T05:47:33Z
2022-07-11T03:48:51Z,42.805,6.029,13.3046,4.60097,2470.544,2022-7-11T05:50:36Z
2022-07-11T03:51:54Z,42.805,6.029,13.3019,4.60099,2470.544,2022-7-11T05:53:40Z
2022-07-11T03:54:57Z,42.805,6.029,13.3037,4.60092,2470.53,2022-7-11T05:56:43Z
2022-07-11T03:58:00Z,42.805,6.029,13.3041,4.60114,2470.52,2022-7-11T05:59:46Z
2022-07-11T04:01:03Z,42.805,6.029,13.3036,4.60123,2470.52,2022-7-11T06:02:49Z
2022-07-11T04:04:06Z,42.805,6.029,13.3041,4.60099,2470.507,2022-7-11T06:05:52Z
2022-07-11T04:07:09Z,42.805,6.029,13.3026,4.60113,2470.497,2022-7-11T06:08:55Z
2022-07-11T04:10:12Z,42.805,6.029,13.3028,4.60137,2470.52,2022-7-11T06:11:58Z
2022-07-11T04:13:16Z,42.805,6.029,13.3028,4.60137,2470.52,2022-7-11T06:15:01Z
2022-07-11T04:16:19Z,42.805,6.029,13.3064,4.60122,2470.497,2022-7-11T06:18:05Z
2022-07-11T04:19:22Z,42.805,6.029,13.3061,4.60104,2470.507,2022-7-11T06:21:08Z
2022-07-11T04:22:25Z,42.805,6.029,13.3048,4.60129,2470.507,2022-7-11T06:24:11Z
2022-07-11T04:25:28Z,42.805,6.029,13.3029,4.60119,2470.553,2022-7-11T06:27:14Z
2022-07-11T04:28:31Z,42.805,6.029,13.3042,4.60125,2470.553,2022-7-11T06:30:17Z
2022-07-11T04:31:34Z,42.805,6.029,13.3026,4.60126,2470.507,2022-7-11T06:33:20Z
2022-07-11T04:34:37Z,42.805,6.029,13.3032,4.60125,2470.52,2022-7-11T06:36:23Z
2022-07-11T04:37:40Z,42.805,6.029,13.3040,4.60110,2470.53,2022-7-11T06:39:26Z
2022-07-11T04:40:44Z,42.805,6.029,13.3034,4.60128,2470.544,2022-7-11T06:42:29Z
2022-07-11T04:43:47Z,42.805,6.029,13.3033,4.60127,2470.507,2022-7-11T06:45:33Z
2022-07-11T04:46:50Z,42.805,6.029,13.3036,4.60119,2470.52,2022-7-11T06:48:36Z
2022-07-11T04:49:53Z,42.805,6.029,13.3034,4.60113,2470.577,2022-7-11T06:51:39Z
2022-07-11T04:52:56Z,42.805,6.029,13.3052,4.60102,2470.507,2022-7-11T06:54:42Z
2022-07-11T04:55:59Z,42.805,6.029,13.3024,4.60110,2470.544,2022-7-11T06:57:45Z
2022-07-11T04:59:02Z,42.805,6.029,13.3032,4.60086,2470.567,2022-7-11T07:00:48Z
2022-07-11T05:02:05Z,42.805,6.029,13.3039,4.60122,2470.53,2022-7-11T07:03:51Z
2022-07-11T05:05:09Z,42.805,6.029,13.3030,4.60115,2470.507,2022-7-11T07:06:54Z
2022-07-11T05:08:12Z,42.805,6.029,13.3041,4.60118,2470.553,2022-7-11T07:09:58Z
2022-07-11T05:11:15Z,42.805,6.029,13.3051,4.60129,2470.52,2022-7-11T07:13:01Z
2022-07-11T05:14:18Z,42.805,6.029,13.3041,4.60125,2470.553,2022-7-11T07:16:04Z
2022-07-11T05:17:21Z,42.805,6.029,13.3037,4.60113,2470.53,2022-7-11T07:19:07Z
2022-07-11T05:20:24Z,42.805,6.029,13.3036,4.60129,2470.544,2022-7-11T07:22:10Z
2022-07-11T05:23:27Z,42.805,6.029,13.3051,4.60118,2470.544,2022-7-11T07:25:13Z
2022-07-11T05:26:30Z,42.805,6.029,13.3060,4.60111,2470.544,2022-7-11T07:28:16Z
2022-07-11T05:29:34Z,42.805,6.029,13.3046,4.60117,2470.53,2022-7-11T07:31:19Z
2022-07-11T05:32:37Z,42.805,6.029,13.3041,4.60106,2470.53,2022-7-11T07:34:23Z
2022-07-11T05:35:40Z,42.805,6.029,13.3046,4.60107,2470.544,2022-7-11T07:37:26Z
2022-07-11T05:38:43Z,42.805,6.029,13.3045,4.60122,2470.507,2022-7-11T07:40:29Z
2022-07-11T05:41:46Z,42.805,6.029,13.3053,4.60092,2470.53,2022-7-11T07:43:32Z
2022-07-11T05:44:49Z,42.805,6.029,13.3034,4.60119,2470.516,2022-7-11T07:46:35Z
2022-07-11T05:47:52Z,42.805,6.029,13.3046,4.60127,2470.544,2022-7-11T07:49:38Z
2022-07-11T05:50:55Z,42.805,6.029,13.3048,4.60092,2470.483,2022-7-11T07:52:41Z
2022-07-11T05:53:59Z,42.805,6.029,13.3029,4.60117,2470.507,2022-7-11T07:55:44Z
2022-07-11T05:57:02Z,42.805,6.029,13.3029,4.60119,2470.553,2022-7-11T07:58:48Z
2022-07-11T06:00:05Z,42.805,6.029,13.3024,4.60074,2470.553,2022-7-11T08:01:51Z
2022-07-11T06:03:08Z,42.805,6.029,13.3051,4.60110,2470.544,2022-7-11T08:04:54Z
2022-07-11T06:06:11Z,42.805,6.029,13.3052,4.60123,2470.567,2022-7-11T08:07:57Z
2022-07-11T06:09:14Z,42.805,6.029,13.3046,4.60081,2470.544,2022-7-11T08:11:00Z
2022-07-11T06:12:17Z,42.805,6.029,13.3043,4.60122,2470.507,2022-7-11T08:14:03Z
2022-07-11T06:15:20Z,42.805,6.029,13.3050,4.60063,2470.544,2022-7-11T08:17:06Z
2022-07-11T06:18:23Z,42.805,6.029,13.3050,4.60062,2470.544,2022-7-11T08:20:09Z
2022-07-11T06:21:27Z,42.805,6.029,13.3015,4.60080,2470.553,2022-7-11T08:23:12Z
2022-07-11T06:24:30Z,42.805,6.029,13.3032,4.60135,2470.53,2022-7-11T08:26:16Z
2022-07-11T06:27:33Z,42.805,6.029,13.3046,4.60082,2470.507,2022-7-11T08:29:19Z
2022-07-11T06:30:36Z,42.805,6.029,13.3025,4.60076,2470.534,2022-7-11T08:32:22Z
2022-07-11T06:33:39Z,42.805,6.029,13.3029,4.60075,2470.52,2022-7-11T08:35:25Z
2022-07-11T06:36:42Z,42.805,6.029,13.3039,4.60080,2470.544,2022-7-11T08:38:28Z
2022-07-11T06:39:45Z,42.805,6.029,13.3026,4.60063,2470.52,2022-7-11T08:41:31Z
2022-07-11T06:42:48Z,42.805,6.029,13.3042,4.60087,2470.507,2022-7-11T08:44:34Z
2022-07-11T06:45:52Z,42.805,6.029,13.3019,4.60070,2470.53,2022-7-11T08:47:37Z
2022-07-11T06:48:55Z,42.805,6.029,13.3026,4.60051,2470.507,2022-7-11T08:50:41Z
2022-07-11T06:51:58Z,42.805,6.029,13.3029,4.60089,2470.507,2022-7-11T08:53:44Z
2022-07-11T06:55:01Z,42.805,6.029,13.3036,4.60109,2470.507,2022-7-11T08:56:47Z
2022-07-11T06:58:04Z,42.805,6.029,13.3033,4.60092,2470.52,2022-7-11T08:59:50Z
2022-07-11T07:01:07Z,42.805,6.029,13.3056,4.60140,2470.507,2022-7-11T09:02:53Z
2022-07-11T07:04:10Z,42.805,6.029,13.3058,4.60120,2470.507,2022-7-11T09:05:56Z
2022-07-11T07:07:13Z,42.805,6.029,13.3039,4.60101,2470.474,2022-7-11T09:08:59Z
2022-07-11T07:10:17Z,42.805,6.029,13.3046,4.60131,2470.46,2022-7-11T09:12:02Z
2022-07-11T07:13:20Z,42.805,6.029,13.3056,4.60130,2470.507,2022-7-11T09:15:06Z
2022-07-11T07:16:23Z,42.805,6.029,13.3057,4.60135,2470.483,2022-7-11T09:18:09Z
2022-07-11T07:19:26Z,42.805,6.029,13.3043,4.60127,2470.483,2022-7-11T09:21:12Z
2022-07-11T07:22:29Z,42.805,6.029,13.3032,4.60185,2470.483,2022-7-11T09:24:15Z
2022-07-11T07:25:32Z,42.805,6.029,13.3039,4.60057,2470.507,2022-7-11T09:27:18Z
2022-07-11T07:28:35Z,42.805,6.029,13.3034,4.60052,2470.52,2022-7-11T09:30:21Z
2022-07-11T07:31:39Z,42.805,6.029,13.3015,4.60055,2470.483,2022-7-11T09:33:25Z
2022-07-11T07:34:42Z,42.805,6.029,13.3024,4.60087,2470.52,2022-7-11T09:36:28Z
2022-07-11T07:37:45Z,42.805,6.029,13.3036,4.60069,2470.507,2022-7-11T09:39:31Z
2022-07-11T07:40:48Z,42.805,6.029,13.3039,4.60077,2470.483,2022-7-11T09:42:34Z
2022-07-11T07:43:52Z,42.805,6.029,13.3039,4.60055,2470.483,2022-7-11T09:45:37Z
2022-07-11T07:46:55Z,42.805,6.029,13.3029,4.60084,2470.507,2022-7-11T09:48:41Z
2022-07-11T07:49:58Z,42.805,6.029,13.3029,4.60092,2470.507,2022-7-11T09:51:44Z
2022-07-11T07:53:01Z,42.805,6.029,13.3026,4.60086,2470.483,2022-7-11T09:54:47Z
2022-07-11T07:56:04Z,42.805,6.029,13.3035,4.60066,2470.52,2022-7-11T09:57:50Z
2022-07-11T07:59:07Z,42.805,6.029,13.3033,4.60107,2470.497,2022-7-11T10:00:53Z
2022-07-11T08:02:10Z,42.805,6.029,13.3036,4.60107,2470.46,2022-7-11T10:03:56Z
2022-07-11T08:05:13Z,42.805,6.029,13.3043,4.60099,2470.483,2022-7-11T10:06:59Z
2022-07-11T08:08:17Z,42.805,6.029,13.3049,4.60126,2470.474,2022-7-11T10:10:02Z
2022-07-11T08:11:20Z,42.805,6.029,13.3036,4.60104,2470.483,2022-7-11T10:13:06Z
2022-07-11T08:14:23Z,42.805,6.029,13.3029,4.60087,2470.483,2022-7-11T10:16:09Z
2022-07-11T08:17:26Z,42.805,6.029,13.3019,4.60118,2470.474,2022-7-11T10:19:12Z
2022-07-11T08:20:29Z,42.805,6.029,13.3045,4.60099,2470.474,2022-7-11T10:22:15Z
2022-07-11T08:23:32Z,42.805,6.029,13.3067,4.60110,2470.46,2022-7-11T10:25:18Z
2022-07-11T08:26:35Z,42.805,6.029,13.3036,4.60103,2470.46,2022-7-11T10:28:21Z
2022-07-11T08:29:38Z,42.805,6.029,13.3026,4.60111,2470.46,2022-7-11T10:31:24Z
2022-07-11T08:32:42Z,42.805,6.029,13.3026,4.60102,2470.404,2022-7-11T10:34:27Z
2022-07-11T08:35:45Z,42.805,6.029,13.3023,4.60098,2470.474,2022-7-11T10:37:31Z
2022-07-11T08:38:48Z,42.805,6.029,13.3054,4.60113,2470.45,2022-7-11T10:40:34Z
2022-07-11T08:41:51Z,42.805,6.029,13.3043,4.60111,2470.437,2022-7-11T10:43:37Z
2022-07-11T08:44:54Z,42.805,6.029,13.3050,4.60107,2470.45,2022-7-11T10:46:40Z
2022-07-11T08:47:57Z,42.805,6.029,13.3037,4.60116,2470.45,2022-7-11T10:49:43Z
2022-07-11T08:51:00Z,42.805,6.029,13.3040,4.60107,2470.437,2022-7-11T10:52:46Z
2022-07-11T08:54:03Z,42.805,6.029,13.3033,4.60114,2470.46,2022-7-11T10:55:49Z
2022-07-11T08:57:07Z,42.805,6.029,13.3046,4.60103,2470.474,2022-7-11T10:58:52Z
2022-07-11T09:00:10Z,42.805,6.029,13.3061,4.60111,2470.413,2022-7-11T11:01:56Z
2022-07-11T09:03:13Z,42.805,6.029,13.3035,4.60135,2470.437,2022-7-11T11:04:59Z
2022-07-11T09:06:16Z,42.805,6.029,13.3043,4.60123,2470.46,2022-7-11T11:08:02Z
2022-07-11T09:09:19Z,42.805,6.029,13.3022,4.60120,2470.413,2022-7-11T11:11:05Z
2022-07-11T09:12:22Z,42.805,6.029,13.3038,4.60133,2470.46,2022-7-11T11:14:08Z
2022-07-11T09:15:25Z,42.805,6.029,13.3048,4.60144,2470.46,2022-7-11T11:17:11Z
2022-07-11T09:18:28Z,42.805,6.029,13.3057,4.60111,2470.437,2022-7-11T11:20:14Z
2022-07-11T09:21:32Z,42.805,6.029,13.3066,4.60087,2470.437,2022-7-11T11:23:17Z
2022-07-11T09:24:35Z,42.805,6.029,13.3044,4.60092,2470.413,2022-7-11T11:26:21Z
2022-07-11T09:27:38Z,42.805,6.029,13.3039,4.60105,2470.413,2022-7-11T11:29:24Z
2022-07-11T09:30:41Z,42.805,6.029,13.3052,4.60142,2470.404,2022-7-11T11:32:27Z
2022-07-11T09:33:44Z,42.805,6.029,13.3028,4.60108,2470.427,2022-7-11T11:35:30Z
2022-07-11T09:36:47Z,42.805,6.029,13.3044,4.60130,2470.413,2022-7-11T11:38:33Z
2022-07-11T09:39:50Z,42.805,6.029,13.3019,4.60127,2470.413,2022-7-11T11:41:36Z
2022-07-11T09:42:53Z,42.805,6.029,13.3039,4.60122,2470.413,2022-7-11T11:44:39Z
2022-07-11T09:45:57Z,42.805,6.029,13.3036,4.60116,2470.404,2022-7-11T11:47:42Z
2022-07-11T09:49:00Z,42.805,6.029,13.3032,4.60127,2470.39,2022-7-11T11:50:46Z
2022-07-11T09:52:03Z,42.805,6.029,13.3046,4.60135,2470.45,2022-7-11T11:53:49Z
2022-07-11T09:55:06Z,42.805,6.029,13.3018,4.60127,2470.45,2022-7-11T11:56:52Z
2022-07-11T09:58:09Z,42.805,6.029,13.3030,4.60122,2470.39,2022-7-11T11:59:55Z
2022-07-11T10:01:12Z,42.805,6.029,13.3031,4.60119,2470.45,2022-7-11T12:02:58Z
2022-07-11T10:04:15Z,42.805,6.029,13.3051,4.60141,2470.413,2022-7-11T12:06:01Z
2022-07-11T10:07:18Z,42.805,6.029,13.3048,4.60104,2470.427,2022-7-11T12:09:04Z
2022-07-11T10:10:22Z,42.805,6.029,13.3035,4.60115,2470.437,2022-7-11T12:12:07Z
2022-07-11T10:13:25Z,42.805,6.029,13.3035,4.60116,2470.427,2022-7-11T12:15:11Z
2022-07-11T10:16:28Z,42.805,6.029,13.3041,4.60132,2470.413,2022-7-11T12:18:14Z
2022-07-11T10:19:31Z,42.805,6.029,13.3027,4.60129,2470.427,2022-7-11T12:21:17Z
2022-07-11T10:22:34Z,42.805,6.029,13.3032,4.60133,2470.413,2022-7-11T12:24:20Z
2022-07-11T10:25:37Z,42.805,6.029,13.3051,4.60099,2470.45,2022-7-11T12:27:23Z
2022-07-11T10:28:40Z,42.805,6.029,13.3036,4.60108,2470.437,2022-7-11T12:30:26Z
2022-07-11T10:31:43Z,42.805,6.029,13.3046,4.60122,2470.404,2022-7-11T12:33:29Z
2022-07-11T10:34:47Z,42.805,6.029,13.3051,4.60087,2470.427,2022-7-11T12:36:32Z
2022-07-11T10:37:50Z,42.805,6.029,13.3047,4.60111,2470.39,2022-7-11T12:39:36Z
2022-07-11T10:40:53Z,42.805,6.029,13.3074,4.60104,2470.413,2022-7-11T12:42:39Z
2022-07-11T10:43:56Z,42.805,6.029,13.3044,4.60079,2470.413,2022-7-11T12:45:42Z
2022-07-11T10:46:59Z,42.805,6.029,13.3034,4.60081,2470.39,2022-7-11T12:48:45Z
2022-07-11T10:50:02Z,42.805,6.029,13.3019,4.60086,2470.427,2022-7-11T12:51:48Z
2022-07-11T10:53:05Z,42.805,6.029,13.3024,4.60103,2470.427,2022-7-11T12:54:51Z
2022-07-11T10:56:08Z,42.805,6.029,13.3034,4.60059,2470.39,2022-7-11T12:57:54Z
2022-07-11T10:59:12Z,42.805,6.029,13.3036,4.60062,2470.39,2022-7-11T13:00:57Z
2022-07-11T11:02:15Z,42.805,6.029,13.3040,4.60075,2470.39,2022-7-11T13:04:01Z
2022-07-11T11:05:18Z,42.805,6.029,13.3042,4.60097,2470.404,2022-7-11T13:07:04Z
2022-07-11T11:08:21Z,42.805,6.029,13.3048,4.60054,2470.427,2022-7-11T13:10:07Z
2022-07-11T11:11:24Z,42.805,6.029,13.3056,4.60102,2470.427,2022-7-11T13:13:10Z
2022-07-11T11:14:27Z,42.805,6.029,13.3043,4.60087,2470.427,2022-7-11T13:16:13Z
2022-07-11T11:17:30Z,42.805,6.029,13.3044,4.60074,2470.413,2022-7-11T13:19:16Z
2022-07-11T11:20:33Z,42.805,6.029,13.3043,4.60065,2470.413,2022-7-11T13:22:19Z
2022-07-11T11:23:37Z,42.805,6.029,13.3063,4.60087,2470.413,2022-7-11T13:25:22Z
2022-07-11T11:26:40Z,42.805,6.029,13.3043,4.60091,2470.413,2022-7-11T13:28:26Z
2022-07-11T11:29:43Z,42.805,6.029,13.3043,4.60072,2470.427,2022-7-11T13:31:29Z
2022-07-11T11:32:46Z,42.805,6.029,13.3053,4.60052,2470.427,2022-7-11T13:34:32Z
2022-07-11T11:35:49Z,42.805,6.029,13.3042,4.60094,2470.413,2022-7-11T13:37:35Z
2022-07-11T11:38:52Z,42.805,6.029,13.3042,4.60097,2470.39,2022-7-11T13:40:38Z
2022-07-11T11:41:55Z,42.805,6.029,13.3024,4.60098,2470.39,2022-7-11T13:43:41Z
2022-07-11T11:44:58Z,42.805,6.029,13.3055,4.60106,2470.39,2022-7-11T13:46:44Z
2022-07-11T11:48:02Z,42.805,6.029,13.3052,4.60095,2470.413,2022-7-11T13:49:48Z
2022-07-11T11:51:05Z,42.805,6.029,13.3045,4.60102,2470.39,2022-7-11T13:52:51Z
2022-07-11T11:54:08Z,42.805,6.029,13.3054,4.60075,2470.404,2022-7-11T13:55:54Z
2022-07-11T11:57:11Z,42.805,6.029,13.3034,4.60113,2470.413,2022-7-11T13:58:57Z
2022-07-11T12:00:14Z,42.805,6.029,13.3048,4.60129,2470.413,2022-7-11T14:02:00Z
2022-07-11T12:03:17Z,42.805,6.029,13.3035,4.60112,2470.413,2022-7-11T14:05:03Z
2022-07-11T12:06:20Z,42.805,6.029,13.3054,4.60102,2470.427,2022-7-11T14:08:06Z
2022-07-11T12:09:23Z,42.805,6.029,13.3063,4.60104,2470.39,2022-7-11T14:11:09Z
2022-07-11T12:12:27Z,42.805,6.029,13.3078,4.60102,2470.413,2022-7-11T14:14:13Z
2022-07-11T12:15:30Z,42.805,6.029,13.3058,4.60117,2470.413,2022-7-11T14:17:16Z
2022-07-11T12:18:33Z,42.805,6.029,13.3056,4.60117,2470.437,2022-7-11T14:20:19Z
2022-07-11T12:21:36Z,42.805,6.029,13.3054,4.60094,2470.437,2022-7-11T14:23:22Z
2022-07-11T12:24:39Z,42.805,6.029,13.3027,4.60110,2470.427,2022-7-11T14:26:25Z
2022-07-11T12:27:42Z,42.805,6.029,13.3038,4.60158,2470.45,2022-7-11T14:29:28Z
2022-07-11T12:30:45Z,42.805,6.029,13.3061,4.60139,2470.413,2022-7-11T14:32:31Z
2022-07-11T12:33:48Z,42.805,6.029,13.3047,4.60156,2470.45,2022-7-11T14:35:34Z
2022-07-11T12:36:52Z,42.805,6.029,13.3059,4.60087,2470.437,2022-7-11T14:38:38Z
2022-07-11T12:39:55Z,42.805,6.029,13.3070,4.60078,2470.404,2022-7-11T14:41:41Z
2022-07-11T12:42:58Z,42.805,6.029,13.3042,4.60109,2470.437,2022-7-11T14:44:44Z
2022-07-11T12:46:01Z,42.805,6.029,13.3069,4.60097,2470.427,2022-7-11T14:47:47Z
2022-07-11T12:49:04Z,42.805,6.029,13.3048,4.60104,2470.45,2022-7-11T14:50:50Z
2022-07-11T12:52:07Z,42.805,6.029,13.3074,4.60120,2470.45,2022-7-11T14:53:53Z
2022-07-11T12:55:10Z,42.805,6.029,13.3060,4.60147,2470.474,2022-7-11T14:56:56Z
2022-07-11T12:58:14Z,42.805,6.029,13.3049,4.60148,2470.437,2022-7-11T14:59:59Z
2022-07-11T13:01:17Z,42.805,6.029,13.3035,4.60164,2470.437,2022-7-11T15:03:03Z
2022-07-11T13:04:20Z,42.805,6.029,13.3082,4.60112,2470.474,2022-7-11T15:06:06Z
2022-07-11T13:07:23Z,42.805,6.029,13.3057,4.60117,2470.46,2022-7-11T15:09:09Z
2022-07-11T13:10:26Z,42.805,6.029,13.3076,4.60141,2470.474,2022-7-11T15:12:12Z
2022-07-11T13:13:29Z,42.805,6.029,13.3061,4.60151,2470.46,2022-7-11T15:15:15Z
2022-07-11T13:16:32Z,42.805,6.029,13.3057,4.60157,2470.474,2022-7-11T15:18:18Z
2022-07-11T13:19:35Z,42.805,6.029,13.3089,4.60119,2470.437,2022-7-11T15:21:21Z
2022-07-11T13:22:38Z,42.805,6.029,13.3039,4.60120,2470.483,2022-7-11T15:24:24Z
2022-07-11T13:25:42Z,42.805,6.029,13.3043,4.60146,2470.483,2022-7-11T15:27:28Z
2022-07-11T13:28:45Z,42.805,6.029,13.3059,4.60128,2470.46,2022-7-11T15:30:31Z
2022-07-11T13:31:48Z,42.805,6.029,13.3055,4.60135,2470.46,2022-7-11T15:33:34Z
2022-07-11T13:34:51Z,42.805,6.029,13.3048,4.60152,2470.474,2022-7-11T15:36:37Z
2022-07-11T13:37:54Z,42.805,6.029,13.3058,4.60135,2470.507,2022-7-11T15:39:40Z
2022-07-11T13:40:57Z,42.805,6.029,13.3036,4.60117,2470.497,2022-7-11T15:42:43Z
2022-07-11T13:44:00Z,42.805,6.029,13.3041,4.60111,2470.483,2022-7-11T15:45:46Z
2022-07-11T13:47:04Z,42.805,6.029,13.3029,4.60102,2470.497,2022-7-11T15:48:49Z
2022-07-11T13:50:07Z,42.805,6.029,13.3045,4.60105,2470.483,2022-7-11T15:51:53Z
2022-07-11T13:53:10Z,42.805,6.029,13.3047,4.60087,2470.46,2022-7-11T15:54:56Z
2022-07-11T13:56:13Z,42.805,6.029,13.3032,4.60094,2470.483,2022-7-11T15:57:59Z
2022-07-11T13:59:16Z,42.805,6.029,13.3021,4.60099,2470.483,2022-7-11T16:01:02Z
2022-07-11T14:02:19Z,42.805,6.029,13.3042,4.60125,2470.507,2022-7-11T16:04:05Z
2022-07-11T14:05:22Z,42.805,6.029,13.3050,4.60112,2470.507,2022-7-11T16:07:08Z
2022-07-11T14:08:25Z,42.805,6.029,13.3034,4.60123,2470.52,2022-7-11T16:10:11Z
2022-07-11T14:11:28Z,42.805,6.029,13.3049,4.60104,2470.52,2022-7-11T16:13:14Z
2022-07-11T14:14:32Z,42.805,6.029,13.3041,4.60109,2470.53,2022-7-11T16:16:18Z
2022-07-11T14:17:35Z,42.805,6.029,13.3039,4.60106,2470.507,2022-7-11T16:19:21Z
2022-07-11T14:20:38Z,42.805,6.029,13.3036,4.60127,2470.507,2022-7-11T16:22:24Z
2022-07-11T14:23:41Z,42.805,6.029,13.3043,4.60147,2470.53,2022-7-11T16:25:27Z
2022-07-11T14:26:44Z,42.805,6.029,13.3045,4.60137,2470.507,2022-7-11T16:28:30Z
2022-07-11T14:29:47Z,42.805,6.029,13.3043,4.60122,2470.507,2022-7-11T16:31:33Z
2022-07-11T14:32:50Z,42.805,6.029,13.3056,4.60143,2470.52,2022-7-11T16:34:36Z
2022-07-11T14:35:54Z,42.805,6.029,13.3068,4.60137,2470.567,2022-7-11T16:37:39Z
2022-07-11T14:38:57Z,42.805,6.029,13.3032,4.60103,2470.539,2022-7-11T16:40:43Z
2022-07-11T14:42:00Z,42.805,6.029,13.3067,4.60139,2470.553,2022-7-11T16:43:46Z
2022-07-11T14:45:03Z,42.805,6.029,13.3053,4.60135,2470.544,2022-7-11T16:46:49Z
2022-07-11T14:48:06Z,42.805,6.029,13.3056,4.60155,2470.53,2022-7-11T16:49:52Z
2022-07-11T14:51:09Z,42.805,6.029,13.3035,4.60122,2470.567,2022-7-11T16:52:55Z
2022-07-11T14:54:12Z,42.805,6.029,13.3039,4.60104,2470.577,2022-7-11T16:55:58Z
2022-07-11T14:57:15Z,42.805,6.029,13.3047,4.60092,2470.553,2022-7-11T16:59:01Z
2022-07-11T15:00:19Z,42.805,6.029,13.3037,4.60097,2470.553,2022-7-11T17:02:04Z
2022-07-11T15:03:22Z,42.805,6.029,13.3038,4.60094,2470.591,2022-7-11T17:05:08Z
2022-07-11T15:06:25Z,42.805,6.029,13.3048,4.60110,2470.553,2022-7-11T17:08:11Z
2022-07-11T15:09:28Z,42.805,6.029,13.3048,4.60084,2470.553,2022-7-11T17:11:14Z
2022-07-11T15:12:31Z,42.805,6.029,13.3054,4.60114,2470.591,2022-7-11T17:14:17Z
2022-07-11T15:15:34Z,42.805,6.029,13.3052,4.60138,2470.577,2022-7-11T17:17:20Z